User: anonymous   Login
Location: Muenchen
(48.1800°N, 11.5800°E)
Time: 12:34:55
(UTC+02:00)
Language:

Sich 1 Rocket - Orbit

View from above orbital plane
View from above orbital plane
View from above satellite
View from above satellite

Ground track
Ground track

The orbit data is extracted from the following two-line orbital elements,

1 23659U 95046C   17174.93208688 +.00000088 +00000-0 +89734-5 0  9995
2 23659 082.5309 299.1848 0024921 208.9770 290.9028 14.78244234175222
Epoch (UTC): 23 June 2017 22:22:12
Eccentricity: 0.0024921
inclination: 82.5309°
perigee height: 617 km
apogee height: 652 km
right ascension of ascending node: 299.1848°
argument of perigee: 208.9770°
revolutions per day: 14.78244234
mean anomaly at epoch: 290.9028°
orbit number at epoch: 17522

The dashed part of the orbit path shows where the satellite is in the earth's shadow,  

DLR